Regional Weather Roundup
Issued by NWS Wakefield, VA

Home | Current Version | Previous Version | Graphics & Text | Print | Product List | Glossary On
Versions: 1 2 3 4 5 6 7 8 9 10 11 12 13 14 15 16 17 18 19 20 21 22 23 24 25 26 27 28 29 30 31 32 33 34 35 36 37 38 39 40 41 42 43 44 45 46 47 48 49 50
000
ASUS41 KAKQ 301810
RWRAKQ

REGIONAL WEATHER ROUNDUP
NATIONAL WEATHER SERVICE WAKEFIELD VA
200 PM EDT WED JUL 30 2014

Note: "fair" indicates few or no clouds below 12,000 feet with no
significant weather and/or obstructions to visibility. * = Denotes
station may not report precipitation (e.g., rain,snow,etc.),
thunder or fog.

VAZ042-051-052>054-056-301900-
NORTHERN VIRGINIA

CITY           SKY/WX    TMP DP  RH WIND       PRES   REMARKS
WASH NATIONAL  FAIR      79  52  38 S8        30.07F
DULLES         PTSUNNY   75  49  39 VRB7      30.07F
FORT BELVOIR   FAIR      78  50  37 VRB2      30.07F
QUANTICO       FAIR      76  54  46 S7        30.08F
FREDERICKSBRG* PTSUNNY   76  52  42 CALM      30.07F
STAFFORD*      FAIR      76  52  42 W6        30.12F
WARRENTON      FAIR      79  59  49 N5        30.07F
CULPEPER*      FAIR     N/A N/A N/A W3        30.08F
MANASSAS*      NOT AVBL
LEESBURG*      FAIR      77  54  44 CALM      30.08S
WINCHESTER     CLOUDY    73  52  46 CALM      30.07F
$$

VAZ048-049-060>072-079>083-301900-
CENTRAL AND SOUTH CENTRAL VIRGINIA...AND NORTH CENTRAL NORTH CAROLINA

CITY           SKY/WX    TMP DP  RH WIND       PRES   REMARKS
RICHMOND       FAIR      80  50  34 W3        30.08F
CHESTERFIELD*  FAIR      77  50  38 S7        30.10F
HANOVER        FAIR      79  52  38 CALM      30.09F
TAPPAHANNOCK*  FAIR      80  49  33 SW8       30.08F
CHARLOTTSVILLE FAIR      76  53  44 SW9       30.08F
ORANGE*        FAIR      77  52  41 S3        30.09F
LOUISA*        PTSUNNY   75  55  50 CALM      30.07F
FARMVILLE*     PTSUNNY   79  52  38 S7        30.07F
SOUTH HILL*    FAIR      77  61  57 CALM      30.14F
ROANOKE RAPIDS NOT AVBL
RALEIGH        PTSUNNY   79  63  57 NE6       30.08F
$$

VAZ088>098-301900-
SOUTHEAST VIRGINIA

CITY           SKY/WX    TMP DP  RH WIND       PRES   REMARKS
NORFOLK        CLOUDY    76  53  44 N7        30.08F
VIRGINIA BEACH PTSUNNY   77  54  44 N10       30.06F
NORFOLK NAVAL  PTSUNNY   77  54  44 N7        30.09F
WEST POINT*    FAIR      80  49  33 W3        30.09F
NEWPORT NEWS   FAIR      81  56  42 VRB6      30.07F
LANGLEY AFB    FAIR      78  56  46 NE9       30.06F
FORT EUSTIS    FAIR      78  56  46 VRB1      30.06F
WILLIAMSBURG*  FAIR      82  59  44 W8        30.08F
FRANKLIN*      FAIR      79  55  44 CALM      30.08F
WAKEFIELD      FAIR      78  58  49 VRB3      30.08F
$$

VAZ020-022-025-037-045-301900-
WESTERN AND SOUTHWEST VIRGINIA

CITY           SKY/WX    TMP DP  RH WIND       PRES   REMARKS
STAUNTON*      PTSUNNY   74  48  40 NE5       30.11F
HOT SPRINGS VA PTSUNNY   61  46  57 S3        30.19F
LYNCHBURG      FAIR      76  51  41 SW5       30.11F
DANVILLE       PTSUNNY   78  59  51 VRB3      30.09F
MARTINSVILLE   PTSUNNY   80  52  37 CALM      30.12S
ROANOKE        FAIR      74  52  46 SE5       30.12F
BLACKSBURG     FAIR      73  54  49 W3          N/A
DUBLIN*        FAIR      74  50  42 SW5       30.15S
MARION*        FAIR      73  49  43 SW3       30.17F
HILLSVILLE*    CLOUDY    71  49  45 NE3       30.15F
RICHLANDS*     MOCLDY    71  51  50 CALM      30.17S
WISE*          PTSUNNY   68  50  52 N6        30.18S
ABINGDON*      FAIR      73  54  50 CALM      30.15F
$$

MDZ021>025-VAZ099-100-301900-
SOUTHERN MARYLAND AND THE DELMARVA PENINSULA

CITY           SKY/WX    TMP DP  RH WIND       PRES   REMARKS
PATUXENT RIVER FAIR      76  52  43 SE5       30.06F
BAY BRIDGE APT   N/A     75  50  41 SW3       30.07S
LEONARDTOWN    FAIR      75  50  41 W7        30.09S
DOVER          NOT AVBL
GEORGETOWN     FAIR      77  51  40 S9        30.06F
EASTON         MOSUNNY   77  54  44 NW7       30.11S
CAMBRIDGE      FAIR      77  52  41 NW9       30.06F
SALISBURY      FAIR      81  50  33 W10       30.05F
OCEAN CITY     FAIR      76  59  55 SE9       30.06F
WALLOPS ISLAND FAIR      80  51  36 VRB6      30.07F
ACCOMACK*        N/A     77  55  47 NW5       30.07F
$$

NCZ012>017-030>032-301900-
EASTERN NORTH CAROLINA

CITY           SKY/WX    TMP DP  RH WIND       PRES   REMARKS
ELIZABETH CITY FAIR      80  61  52 CALM      30.07F
AHOSKIE*       FAIR      77  59  53 CALM      30.08F
EDENTON*       PTSUNNY   79  64  59 S7        30.07F
CURRITUCK*     CLOUDY    79  55  43 NE3       30.08F
KILL DEVIL HLS FAIR      78  59  51 N7        30.07S
MANTEO         NOT AVBL
CAPE HATTERAS  FAIR      82  62  50 N8G18     30.06S
GOLDSBORO      FAIR      81  66  60 VRB2      30.04F
WASHINGTON     FAIR      80  61  52 CALM      30.07F
GREENVILLE     FAIR      81  63  54 E5        30.08F
NEW BERN       FAIR      85  59  41 VRB6      30.07S
WILMINGTON     FAIR      84  65  52 E10G18    30.05S
$$

VAZ048-301900-
ELSEWHERE

CITY           SKY/WX    TMP DP  RH WIND       PRES   REMARKS
HARRISBURG PA  PTSUNNY   76  55  48 SE6       30.04F
BALTIMORE      FAIR      78  48  34 VRB5      30.05F
ANNAPOLIS      PTSUNNY   73  57  57 SE10      30.06F
ANDREWS AFB    FAIR      75  51  42 VRB3      30.06F
WILMINGTON DE  FAIR      78  55  44 W8        30.05F
PHILADELPHIA   FAIR      78  51  38 S9        30.03F
WILDWOOD NJ*   FAIR      75  52  43 W12       30.07S
ATLANTIC CITY  FAIR      79  52  38 NW7       30.03F
HENDERSON NC   PTSUNNY   75  62  63 E6        30.09F
GREENSBORO     PTSUNNY   79  61  53 VRB3      30.08F
ROCKY MOUNT    PTSUNNY   81  61  50 CALM      30.08F
FAYETTEVILLE   PTSUNNY   84  62  47 E6        30.04F
CHARLOTTE      FAIR      81  59  47 E6        30.08F
$$

VAZ100-301900-
MARINE

STATION/POSITION TIME  TEMP    WIND        PRES    WAVE   SWELL
                       AIR SEA DIR/SP/G            HT/PER HT/PER
                 (UTC) (F)     (DEG/KT/KT) (MB)    (FT/S) (FT/S)
44066 TX TWR #4  1800   72 76  330/  8/ 12 1016.7S   3/ 8   3/ 8
CAPE MAY NJ      1800   73 76  300/  4/  6 1017.4F
LEWES DE         1800   71 72   20/  6/  7 1017.5F
15NM E FENWICK I 1800   71 74              1018.1F   2/ 8
OCEAN-CITY-INLET 1800   73 71  140/  6/  9 1017.4F
WACHAPREAGUE VA  1800   78 78  260/  5/ 10 1018.2S
THOMAS POINT MD  1800   72 78  150/  8/  9 1018.5F
GOOSES REEF MD   1800   72     170/  2/  4 1019.0S
COVE POINT MD    1800   71      70/  3/  5 1018.2F
SOLOMONS ISLAND  1800      80                N/A
BISHOPS HEAD MD  1800   73 78  270/  6/  7 1017.9F
PINEY POINT MD   1800          350/  6/  7   N/A
POTOMAC MD       1800   73     340/  6/  8 1017.7F
CAMBRIDGE MD     1800   72 78  330/ 10/ 12 1017.8F
LEWISETTA VA     1800   74 77   60/  4/  7 1018.0F
RAPPAHANNOCK LGT 1800          350/  5/  6 1019.1F
STINGRAY PT      1800   74     110/  2/  4 1019.2F
YORK RVR RNG VA  1800   74     160/  4/  5 1018.0F
YORKTOWN VA      1800   77 79  350/  3/  4 1018.1F
JAMESTOWN VA     1800   73     340/  6/  8   N/A
DOMINION TERM VA 1800   74     190/  2/  3 1018.7F
KIPTOPEKE VA     1800      81  320/  5/  7   N/A
CHES BAY BRIDGE  1800   73 77  350/  6/  7 1017.9F
CAPE HENRY VA    1800   73     330/  7/  9 1017.4F
WILLOUBY STN VA  1800           70/  4/  5 1017.9F
S CRANEY ISL VA  1800          320/  4/  6 1018.6S
CAPE HENRY BUOY  1800      79                N/A     2/ 9
1ST LANDING BUOY 1800   74     350/  6/  8 1018.3S
CAPE CHARLES BUO 1800      78                N/A     2/ 9
OFFSHORE WE BUOY 1800      78                N/A     2/ 8
64NM E OF VA BCH 1800   74 78  350/ 10/ 14 1017.8F   2/ 8   2/ 8
DUCK PIER NC     1800   74 76   10/  9/ 10 1017.7S
44056 DUCK FRF   1800                        N/A     2/ 8
OREGON INLET NC  1800   77 77   30/  8/ 10 1018.1F
HATTERAS NC      1800   78 79   30/  9/ 15 1018.3S
DIAMOND SHLS NC  1800          VRB 14/ 17  1017.3R   4/ 7   2/ 7
CAPE LOOKOUT NC  1700   78      50/ 14/ 17 1017.7S
$$


USA.gov is the U.S. government's official web portal to all federal, state and local government web resources and services.